Globalstar M095

operational
NORAD ID: 39075 Int'l Des: 2013-005 Owner: GLOBL Country: US Constellation: globalstar
LEOCIRCULAR

关于 Globalstar M095

正在加载描述...

实时位置

正在加载3D地球...

即将过境

高度历史

Altitude vs Time

uPlot chart will show altitude changes over time

两行轨道根数

1 39075U 13005D 25299.39787637 -.00000071 00000-0 18081-3 0 9990
2 39075 52.0063 191.2362 0000850 89.7717 270.3247 12.62268183587866
Epoch: Oct 26, 2025 • Age: 12 hours

当前状态

高度 1413.4 km
速度 7.16 km/s
星下点 16.53°N, 148.32°W
发射日期 Feb 6, 2013
运行时间 12.7 years
类型 communications

技术详情

分类 Payload
质量 715.00 kg
干质量 500.00 kg
总质量 715.00 kg
长度 4.00 m
直径 2.00 m
跨度 12.00 m
形状 Trap Cyl + 2 Pan
制造商 THALR
平台类型 Prisma
阶段状态 In Orbit
所有者/国家 GLOBL/US

大型星座

Loading constellations...